IRIDIUM 33 DEB, 36483

Orbit data source: Space-Track

IRIDIUM 33 DEB, 36483 is space debris in LEO originally from a launch on Sun, 14 Sep 1997 UTC launched from the Tyuratam Missile And Space Complex (TTMTR). The debris from Iridium 33, an American commercial communications satellite, has been tracked extensively since its accidental collision with the defunct Russian satellite Cosmos 2251 in 2009. This event, occurring at high speed in low Earth orbit (LEO), generated thousands of pieces of space debris, significantly increasing the risk of further collisions. The Iridium 33 debris cloud has impacted space traffic management and orbital debris mitigation strategies, making it a subject of ongoing study in space situational awareness.

Loading next visibility...
Identifier
36483, 1997-051VZ
Orbit
LEO
Country
Flag of USUS
Related business
Manufacturer
Unknown
Mission
Spacecraft
Bus & Motor
Unknown
Mass
Unknown
Launch date (UTC)
1997-09-14 (28 years ago)
Launch vehicle
Unknown
Launch site
Tyuratam Missile And Space Complex (TTMTR)
Object type
Payload
Rocket body
Debris
Shape & HBR
Unknown shape, 0.1 m
Radar Cross Section
Small (<0.1 m²)

Expand to show TLE details & history
Last TLE update: 2 days ago

TLE from 2 days ago
0 IRIDIUM 33 DEB
1 36483U 97051VZ  25350.91208845  .00001343  00000-0  37285-3 0  9997
2 36483  86.3797  50.7036 0011362 114.4564 245.7824 14.45825155652066
Epoch: 2025-12-16T21:53Z
TLE epoch observation values (Epoch: 2025-12-16T21:53:24.442Z)
Latitude
-0.00007°
Longitude
-3.43774°
Altitude
745.71 km
Speed
7.48 km/s
True Right ascension
03h 22m 48s
True Declination
0° 00' 00"
Sunlit
Object was in full shadow at epoch
Visualization orbit readout
Latitude
Unknown
Longitude
Unknown
Altitude
Unknown
Speed
Unknown
Apparent Right ascension
Unknown
Apparent Declination
Unknown
Sunlit
N/A
Visualization observer readout
Local Sidereal Time
16:17:39
Azimuth
Unknown
Elevation
Unknown
Doppler factor
Unknown
Orbital elements
Apogee altitude
744.349 km
Perigee altitude
728.182 km
Semi-major axis
7,114.402 km
Eccentricity
0.00114
Inclination
86.3797°
RAAN
50.7036°
Arg. of periapsis
114.4564°
True anomaly
245.66373°
Mean anomaly
245.7824°
Eccentric anomaly
245.72306°
Mean motion
3.61689 °/min
Orbital period
99.53 mins
BSTAR
0.00037285
Loading maneuver chart data...
Computing Atmospheric mass density...

Documentation

Showing up to 5 results
|